Weather History for KANE - August, 2013

Change the Weather History Date:

Tuesday, August 27, 2013

  Actual Average Record
Temperature  
Mean Temperature 83 °F -  
Max Temperature 91 °F 76 °F 91 °F (2013)
Min Temperature 75 °F 57 °F 50 °F (2003)
Cooling Degree Days 18    
Growing Degree Days 33 (Base 50)    
Moisture  
Dew Point 74 °F    
Average Humidity 75    
Maximum Humidity 89    
Minimum Humidity 59    
Precipitation  
Precipitation 0.00 in - - ()
Sea Level Pressure  
Sea Level Pressure 29.84 in    
Wind  
Wind Speed 6 mph (SSW)    
Max Wind Speed 12 mph    
Max Gust Speed 17 mph    
Visibility 10 miles    
Events      
Averages and records for this station are not official NWS values.
T = Trace of Precipitation, MM = Missing Value Source: NWS Daily Summary

Daily Weather History Graph

Daily Weather History Graph

Search for Another Location

Airport or City:

Trip Planner

Search our weather history database for the weather conditions in past years. The results will help you decide how hot, cold, wet, or windy it might be!

Date:

Astronomy

Aug. 27, 2013 Rise Set
Actual Time 6:29 AM CDT 7:58 PM CDT
Civil Twilight 5:58 AM CDT 8:29 PM CDT
Nautical Twilight 5:20 AM CDT 9:06 PM CDT
Astronomical Twilight 4:40 AM CDT 9:46 PM CDT
Moon 11:31 PM CDT (8/27) 1:48 PM CDT (8/27)
Length of Visible Light 14h 31m
Length of Day
13h 29m
Waning Gibbous, 57% of the Moon is Illuminated
Aug 27
Waning Gibbous
Aug 28
Last Quarter
Sep 5
New
Sep 12
First Quarter
Sep 19
Full

Hourly Weather History & Observations

Time (CDT) Temp. Heat Index Dew Point Humidity Pressure Visibility Wind Dir Wind Speed Gust Speed Precip Events Conditions
12:14 AM 84.2 °F 92.3 °F 75.2 °F 74% 29.86 in 10.0 mi South 5.8 mph - N/A   Clear
12:34 AM 84.2 °F 92.3 °F 75.2 °F 74% 29.86 in 10.0 mi South 5.8 mph - N/A   Clear
12:54 AM 84.2 °F 92.3 °F 75.2 °F 74% 29.85 in 10.0 mi South 10.4 mph - N/A   Clear
1:14 AM 84.2 °F 92.3 °F 75.2 °F 74% 29.85 in 10.0 mi South 6.9 mph - N/A   Clear
1:34 AM 84.2 °F 92.3 °F 75.2 °F 74% 29.83 in 10.0 mi SSW 10.4 mph - N/A   Clear
1:54 AM 84.2 °F 92.3 °F 75.2 °F 74% 29.83 in 10.0 mi South 9.2 mph - N/A   Clear
2:14 AM 84.2 °F 92.3 °F 75.2 °F 74% 29.82 in 10.0 mi SSW 8.1 mph - N/A   Clear
2:33 AM 82.4 °F 89.5 °F 75.2 °F 79% 29.82 in 10.0 mi SSW 8.1 mph - N/A   Clear
2:54 AM 82.4 °F 89.5 °F 75.2 °F 79% 29.81 in 10.0 mi South 8.1 mph - N/A   Clear
3:14 AM 82.4 °F 89.5 °F 75.2 °F 79% 29.81 in 10.0 mi South 6.9 mph - N/A   Clear
3:34 AM 82.4 °F 89.5 °F 75.2 °F 79% 29.81 in 10.0 mi SSW 10.4 mph - N/A   Clear
3:54 AM 82.4 °F 88.2 °F 73.4 °F 74% 29.81 in 10.0 mi SSW 6.9 mph - N/A   Clear
4:13 AM 82.4 °F 88.2 °F 73.4 °F 74% 29.81 in 10.0 mi South 8.1 mph - N/A   Clear
4:34 AM 82.4 °F 88.2 °F 73.4 °F 74% 29.80 in 10.0 mi South 8.1 mph - N/A   Clear
4:54 AM 80.6 °F 85.4 °F 73.4 °F 79% 29.80 in 10.0 mi SSW 6.9 mph - N/A   Clear
5:13 AM 80.6 °F 85.4 °F 73.4 °F 79% 29.80 in 10.0 mi SSW 6.9 mph - N/A   Clear
5:34 AM 80.6 °F 85.4 °F 73.4 °F 79% 29.80 in 10.0 mi South 5.8 mph - N/A   Clear
5:54 AM 80.6 °F 85.4 °F 73.4 °F 79% 29.81 in 10.0 mi SSW 4.6 mph - N/A   Clear
6:13 AM 78.8 °F - 73.4 °F 83% 29.81 in 10.0 mi South 4.6 mph - N/A   Clear
6:34 AM 78.8 °F - 73.4 °F 83% 29.81 in 10.0 mi South 4.6 mph - N/A   Clear
6:50 AM 78.8 °F - 73.4 °F 83% 29.81 in 10.0 mi South 3.5 mph - N/A   Clear
6:54 AM 78.8 °F - 73.4 °F 83% 29.81 in 10.0 mi South 3.5 mph - N/A   Clear
7:45 AM 80.6 °F 85.4 °F 73.4 °F 79% 29.82 in 10.0 mi Calm Calm - N/A   Clear
8:45 AM 82.4 °F 88.2 °F 73.4 °F 74% 29.82 in 10.0 mi Calm Calm - N/A   Clear
9:45 AM 84.2 °F 90.9 °F 73.4 °F 70% 29.82 in 10.0 mi WSW 4.6 mph - N/A   Clear
10:45 AM 87.8 °F 95.6 °F 73.4 °F 62% 29.82 in 10.0 mi WSW 3.5 mph - N/A   Clear
11:45 AM 89.6 °F 99.8 °F 75.2 °F 62% 29.83 in 10.0 mi Calm Calm - N/A   Clear
12:45 PM 91.4 °F 105.1 °F 77.0 °F 63% 29.82 in 10.0 mi NNE 3.5 mph - N/A   Mostly Cloudy
1:45 PM 87.8 °F 99.7 °F 77.0 °F 70% 29.83 in 10.0 mi North 11.5 mph 17.3 mph N/A   Mostly Cloudy
2:45 PM 89.6 °F 102.2 °F 77.0 °F 66% 29.83 in 10.0 mi North 11.5 mph - N/A   Mostly Cloudy
3:45 PM 89.6 °F 102.2 °F 77.0 °F 66% 29.83 in 10.0 mi NNE 8.1 mph - N/A   Mostly Cloudy
4:45 PM 91.4 °F 105.1 °F 77.0 °F 63% 29.83 in 10.0 mi North 5.8 mph - N/A   Scattered Clouds
5:45 PM 91.4 °F 102.5 °F 75.2 °F 59% 29.84 in 10.0 mi NNE 8.1 mph - N/A   Scattered Clouds
6:45 PM 89.6 °F 99.8 °F 75.2 °F 62% 29.85 in 10.0 mi NNE 8.1 mph - N/A   Clear
7:45 PM 86.0 °F 95.1 °F 75.2 °F 70% 29.87 in 10.0 mi NNE 8.1 mph - N/A   Clear
8:45 PM 84.2 °F 90.9 °F 73.4 °F 70% 29.90 in 10.0 mi North 8.1 mph - N/A   Clear
9:13 PM 80.6 °F 85.4 °F 73.4 °F 79% 29.91 in 10.0 mi NNE 4.6 mph - N/A   Clear
9:34 PM 80.6 °F 85.4 °F 73.4 °F 79% 29.91 in 10.0 mi NNE 4.6 mph - N/A   Clear
9:45 PM 80.6 °F 85.4 °F 73.4 °F 79% 29.91 in 10.0 mi NNE 5.8 mph - N/A   Clear
9:54 PM 78.8 °F - 73.4 °F 83% 29.91 in 10.0 mi NE 4.6 mph - N/A   Clear
10:13 PM 78.8 °F - 73.4 °F 83% 29.91 in 10.0 mi NNE 3.5 mph - N/A   Clear
10:34 PM 78.8 °F - 73.4 °F 83% 29.92 in 10.0 mi Calm Calm - N/A   Clear
10:53 PM 77.0 °F - 71.6 °F 83% 29.92 in 10.0 mi Calm Calm - N/A   Clear
11:14 PM 75.2 °F - 71.6 °F 89% 29.93 in 10.0 mi Calm Calm - N/A   Clear
11:33 PM 75.2 °F - 71.6 °F 89% 29.93 in 10.0 mi Calm Calm - N/A   Clear